Date String (YYYY-MM-DD hh:mm:ss) UTC,Instrument flags,Ambient pressure (hPa),Sample flow (lpm),Bypass flow (lpm),Sample temperature (°C),Ambient temperature (°C),ASC tube jacket temperature (°C),LED temperature (°C),Box temperature (°C),Sample RH (%),Span deviation,Mass concentration (μg/m³),Mass concentration (μg/m³),Mass concentration (μg/m³)
DateTimeUTC,F1_M11,P_M11,Q1_M11,Q2_M11,T1_M11,T2_M11,T3_M11,T4_M11,T5_M11,U1_M11,ZSPAN_M11,X2_M11,X0_M11,X1_M11
2022-09-24 04:00:00,,0828.9,5.00,0.00,30.1,28.7,00.0,38.8,32.0,11.5,0000.0,0002.06,0005.00,0001.47
2022-09-24 04:01:00,,0828.9,5.01,0.00,30.1,28.7,00.0,38.9,32.0,11.5,0000.0,0002.06,0004.16,0001.48
2022-09-24 04:02:00,,0828.9,5.00,0.00,30.1,28.7,00.0,38.9,32.0,11.0,0000.0,0002.06,0004.51,0001.47
2022-09-24 04:03:00,,0829.0,4.99,0.00,30.2,28.8,00.0,38.9,32.0,11.1,0000.0,0002.02,0004.47,0001.47
2022-09-24 04:04:00,,0829.0,5.01,0.00,30.2,28.8,00.0,38.9,32.0,11.4,0000.0,0002.01,0004.59,0001.48
2022-09-24 04:05:00,,0829.0,4.99,0.00,30.2,28.8,00.0,38.9,32.0,10.9,0000.0,0002.02,0004.97,0001.49
2022-09-24 04:06:00,,0829.0,5.00,0.00,30.2,28.8,00.0,38.9,32.0,10.8,0000.0,0002.00,0004.95,0001.49
2022-09-24 04:07:00,,0829.0,5.01,0.00,30.2,28.8,00.0,38.9,32.0,11.0,0000.0,0002.01,0004.93,0001.51
2022-09-24 04:08:00,,0829.0,4.99,0.00,30.2,28.8,00.0,38.9,32.1,11.1,0000.0,0001.99,0004.76,0001.53
2022-09-24 04:09:00,,0829.0,5.01,0.00,30.2,28.8,00.0,39.0,32.1,11.0,0000.0,0002.01,0004.66,0001.54
2022-09-24 04:10:00,,0829.0,4.99,0.00,30.2,28.9,00.0,39.0,32.1,10.6,0000.0,0002.09,0004.57,0001.56
2022-09-24 04:11:00,,0829.0,4.99,0.00,30.3,28.9,00.0,39.0,32.1,10.7,0000.0,0002.10,0004.60,0001.57
2022-09-24 04:12:00,,0829.0,5.01,0.00,30.3,28.9,00.0,39.0,32.1,10.6,0000.0,0002.12,0004.33,0001.57
2022-09-24 04:13:00,,0829.0,4.99,0.00,30.3,28.9,00.0,39.0,32.1,10.8,0000.0,0002.11,0004.36,0001.59
2022-09-24 04:14:00,,0829.0,5.00,0.00,30.3,28.9,00.0,39.0,32.1,10.6,0000.0,0002.13,0004.57,0001.59
2022-09-24 04:15:00,,0829.0,5.00,0.00,30.3,28.8,00.0,39.0,32.1,10.3,0000.0,0002.18,0005.26,0001.60
2022-09-24 04:16:00,,0828.9,5.00,0.00,30.3,28.9,00.0,39.0,32.1,10.4,0000.0,0002.14,0005.75,0001.60
2022-09-24 04:17:00,,0828.8,5.01,0.00,30.3,28.8,00.0,39.0,32.1,10.5,0000.0,0002.14,0006.29,0001.59
2022-09-24 04:18:00,,0829.0,4.99,0.00,30.3,28.8,00.0,39.0,32.1,10.4,0000.0,0002.14,0006.27,0001.58
2022-09-24 04:19:00,,0829.0,5.00,0.00,30.3,28.8,00.0,39.0,32.1,10.6,0000.0,0002.15,0006.28,0001.59
2022-09-24 04:20:00,,0829.2,4.99,0.00,30.3,28.9,00.0,39.0,32.1,10.7,0000.0,0002.11,0006.19,0001.57
2022-09-24 04:21:00,,0829.0,4.99,0.00,30.3,28.9,00.0,39.0,32.1,10.6,0000.0,0002.06,0006.04,0001.56
2022-09-24 04:22:00,,0829.2,5.01,0.00,30.3,28.9,00.0,39.1,32.1,10.5,0000.0,0002.08,0006.10,0001.55
2022-09-24 04:23:00,,0829.3,4.99,0.00,30.3,28.9,00.0,39.1,32.1,10.8,0000.0,0002.07,0006.15,0001.56
2022-09-24 04:24:00,,0828.9,5.01,0.00,30.3,28.9,00.0,39.1,32.1,11.0,0000.0,0002.04,0005.78,0001.56
2022-09-24 04:25:00,,0828.8,5.00,0.00,30.3,28.8,00.0,39.1,32.1,10.6,0000.0,0002.06,0005.42,0001.56
2022-09-24 04:26:00,,0829.0,5.00,0.00,30.3,28.8,00.0,39.1,32.1,10.5,0000.0,0002.04,0004.81,0001.56
2022-09-24 04:27:00,,0828.8,4.99,0.00,30.3,28.8,00.0,39.1,32.2,10.8,0000.0,0002.04,0004.16,0001.56
2022-09-24 04:28:00,,0829.2,4.99,0.00,30.4,28.9,00.0,39.1,32.2,10.7,0000.0,0002.01,0003.55,0001.56
2022-09-24 04:29:00,,0829.3,5.01,0.00,30.4,28.9,00.0,39.1,32.2,10.9,0000.0,0002.01,0003.60,0001.56
2022-09-24 04:30:00,,0829.2,4.99,0.00,30.4,28.9,00.0,39.1,32.2,11.1,0000.0,0002.01,0003.60,0001.58
2022-09-24 04:31:00,,0829.3,5.01,0.00,30.4,28.9,00.0,39.1,32.2,11.2,0000.0,0002.01,0003.59,0001.58
2022-09-24 04:32:00,,0829.0,5.00,0.00,30.4,28.9,00.0,39.1,32.2,11.2,0000.0,0002.01,0003.71,0001.58
2022-09-24 04:33:00,,0828.8,5.00,0.00,30.4,28.9,00.0,39.1,32.2,11.1,0000.0,0001.98,0003.65,0001.60
2022-09-24 04:34:00,,0828.8,5.00,0.00,30.4,28.9,00.0,39.1,32.2,11.0,0000.0,0001.98,0003.72,0001.58
2022-09-24 04:35:00,,0828.8,4.99,0.00,30.4,29.0,00.0,39.1,32.2,11.0,0000.0,0002.00,0003.99,0001.57
2022-09-24 04:36:00,,0828.9,5.01,0.00,30.4,29.0,00.0,39.2,32.3,10.9,0000.0,0001.97,0003.95,0001.57
2022-09-24 04:37:00,,0829.0,4.99,0.00,30.4,29.0,00.0,39.2,32.2,11.0,0000.0,0001.95,0003.94,0001.56
2022-09-24 04:38:00,,0828.8,4.99,0.00,30.4,29.0,00.0,39.2,32.2,11.1,0000.0,0001.99,0003.89,0001.56
2022-09-24 04:39:00,,0828.9,5.01,0.00,30.4,29.0,00.0,39.2,32.3,10.9,0000.0,0002.00,0003.58,0001.56
2022-09-24 04:40:00,,0828.9,4.99,0.00,30.4,29.0,00.0,39.2,32.3,11.0,0000.0,0001.99,0003.52,0001.56
2022-09-24 04:41:00,,0828.9,5.00,0.00,30.4,29.0,00.0,39.2,32.3,10.9,0000.0,0001.99,0003.53,0001.56
2022-09-24 04:42:00,,0828.9,5.02,0.00,30.5,29.0,00.0,39.2,32.3,10.8,0000.0,0002.02,0003.58,0001.55
2022-09-24 04:43:00,,0828.9,4.99,0.00,30.5,29.0,00.0,39.2,32.3,10.8,0000.0,0002.05,0004.71,0001.55
2022-09-24 04:44:00,,0829.0,5.00,0.00,30.5,29.1,00.0,39.2,32.3,10.8,0000.0,0002.09,0005.13,0001.54
2022-09-24 04:45:00,,0828.9,5.00,0.00,30.5,29.1,00.0,39.2,32.3,10.7,0000.0,0002.11,0005.05,0001.55
2022-09-24 04:46:00,,0829.0,4.99,0.00,30.5,29.1,00.0,39.2,32.3,10.7,0000.0,0002.10,0004.84,0001.56
2022-09-24 04:47:00,,0829.0,5.01,0.00,30.5,29.1,00.0,39.2,32.3,10.7,0000.0,0002.12,0006.53,0001.56
2022-09-24 04:48:00,,0829.1,5.00,0.00,30.5,29.1,00.0,39.3,32.4,10.6,0000.0,0002.15,0006.97,0001.57
2022-09-24 04:49:00,,0829.1,4.99,0.00,30.5,29.1,00.0,39.3,32.4,10.6,0000.0,0002.14,0006.86,0001.59
2022-09-24 04:50:00,,0829.0,5.01,0.00,30.5,29.2,00.0,39.3,32.4,10.6,0000.0,0002.19,0007.32,0001.60
2022-09-24 04:51:00,,0829.1,5.00,0.00,30.6,29.2,00.0,39.3,32.4,10.6,0000.0,0002.22,0007.43,0001.61
2022-09-24 04:52:00,,0829.2,4.99,0.00,30.6,29.2,00.0,39.3,32.4,10.6,0000.0,0002.22,0007.48,0001.61
2022-09-24 04:53:00,,0829.3,4.99,0.00,30.6,29.2,00.0,39.3,32.4,10.6,0000.0,0002.24,0007.54,0001.62
2022-09-24 04:54:00,,0829.3,5.02,0.00,30.6,29.2,00.0,39.3,32.4,10.5,0000.0,0002.27,0006.66,0001.63
2022-09-24 04:55:00,,0829.2,4.99,0.00,30.6,29.2,00.0,39.3,32.4,10.4,0000.0,0002.29,0006.41,0001.63
2022-09-24 04:56:00,,0829.3,4.99,0.00,30.6,29.3,00.0,39.3,32.4,10.1,0000.0,0002.31,0006.66,0001.63
2022-09-24 04:57:00,,0829.2,5.01,0.00,30.6,29.1,00.0,39.3,32.5,10.4,0000.0,0002.35,0006.73,0001.64
2022-09-24 04:58:00,,0829.2,5.00,0.00,30.6,27.7,00.0,39.3,32.3,10.3,0000.0,0002.39,0005.17,0001.64
2022-09-24 04:59:00,,0829.3,5.00,0.00,30.6,26.8,00.0,39.2,32.2,10.3,0000.0,0002.38,0004.84,0001.63
